Flag for Gambia Weather past 2 weeks in Banjul, Gambia

Now
73 °F

Mild.


Feels Like: 72 °F
Forecast: N/A
Wind: 8 mph from Southwest

Location: Banjul / Yundum


UV Index: N/A

Visibility: N/A


Pressure: N/A

Humidity: 89%

Dew point: 70 °F

Location of BanjulLocation

Historic Weather in Banjul

°F

Banjul temperature yesterday

Maximum temperature yesterday: 95 °F (at 3:00 PM)
Minimum temperature yesterday: 68 °F (at 7:00 AM)
Average temperature yesterday: 78 °F

Past Weeks' High & Low Weather Summary

 TemperatureHumidityPressure
High104 °F (Apr 5, 2:00 PM)100% (Apr 12, 5:00 AM)29.92 "Hg (Apr 12, 5:00 AM)
Low63 °F (Apr 7, 5:00 AM)13% (Apr 5, 3:00 PM)29.71 "Hg (Apr 16, 4:00 PM)
Average76 °F67%29.83 "Hg
* Reported Apr 4 10:00 PM — Apr 19 10:00 PM, Banjul, Weather by CustomWeather, © 2014

Note: Actual official high and low records may vary slightly from our data, if they occured in-between our weather recording intervals... More about our weather records

Advertising

Historic Weather Conditions — Data for Previous 24 hours

 ConditionsComfort  
Time TempWeatherWind HumidityBarometerVisibility
10:00 PM
Apr 19
73 °FClear.9 mph89%N/A10 mi
9:00 PM75 °FClear.8 mph83%29.80 "Hg10 mi
8:00 PM77 °FClear.7 mph74%29.77 "Hg10 mi
7:00 PM81 °FWarm.58 mph66%29.77 "HgN/A
6:00 PM84 °FSunny.8 mph58%29.74 "Hg10 mi
5:00 PM90 °FSunny.8 mph52%29.77 "Hg10 mi
3:00 PM93 °FSunny.5 mph47%29.77 "Hg10 mi
2:00 PM93 °FSunny.7 mph49%29.80 "Hg10 mi
1:00 PM90 °FSunny.7 mph52%29.80 "Hg10 mi
12:00 PM88 °FSunny.5 mph55%29.80 "Hg10 mi
11:00 AM84 °FSunny.5 mph58%29.83 "Hg10 mi
10:00 AM81 °FSunny.5 mph66%29.83 "Hg10 mi
9:00 AM72 °FMild.7 mph94%29.80 "HgN/A
8:00 AM72 °FMild.5 mph94%29.77 "Hg6 mi
7:00 AM70 °FScattered clouds.6 mph100%29.77 "Hg6 mi
6:00 AM72 °FPassing clouds.6 mph94%29.77 "Hg6 mi
5:00 AM72 °FClear.7 mph94%29.77 "Hg10 mi
4:00 AM70 °FClear.3 mph100%29.77 "Hg6 mi
3:00 AM72 °FPassing clouds.6 mph94%29.80 "Hg6 mi
2:00 AM72 °FMild.5 mph94%29.80 "HgN/A
1:00 AM73 °FMild.6 mph89%29.80 "HgN/A
12:00 AM73 °FMild.8 mph89%29.80 "HgN/A
11:00 PM
Apr 18
73 °FMild.6 mph89%29.80 "HgN/A
Weather by CustomWeather, © 2014

See weather overview